EW6103 Weather Reports


Display with metric or nautical units.
time (UTC)temp
F
wind
direction
speed
MPH
gust
MPH
rain 1hr
in
rain 24hr
in
rain mn
in
humidity
%
barometer
mb
20260905154009 70 270 6.0 11.0 0.00 0.08 0.08 50 1017.2
20260905153007 71 135 8.0 12.0 0.00 0.08 0.08 51 1017.1
20260905152009 71 135 7.0 13.0 0.00 0.08 0.08 50 1017.1
20260905151008 70 270 6.0 13.0 0.00 0.08 0.08 52 1017.0
20260905150010 70 135 10.0 16.0 0.00 0.08 0.08 49 1017.0
20260905145010 71 135 10.0 16.0 0.00 0.08 0.08 48 1017.0
20260905144008 71 270 9.0 13.0 0.00 0.08 0.08 49 1016.9
20260905143009 72 135 9.0 13.0 0.00 0.08 0.08 49 1016.8
20260905141007 73 135 11.0 16.0 0.00 0.08 0.08 49 1016.6
20260905140013 71 270 10.0 16.0 0.00 0.08 0.08 49 1016.7
20260905135008 71 135 7.0 12.0 0.00 0.08 0.08 54 1017.0
20260905134007 73 0 11.0 18.0 0.00 0.08 0.08 49 1016.8
20260905133010 74 135 10.0 13.0 0.00 0.08 0.08 47 1016.7
20260905132008 74 270 12.0 19.0 0.00 0.08 0.08 49 1016.6
20260905131007 73 180 12.0 17.0 0.00 0.08 0.08 50 1016.8
20260905130014 69 270 10.0 14.0 0.00 0.08 0.08 57 1017.3
20260905125010 69 270 9.0 13.0 0.00 0.08 0.08 58 1017.2
20260905124008 72 135 7.0 12.0 0.00 0.08 0.08 55 1017.1
20260905123009 71 270 8.0 12.0 0.00 0.08 0.08 56 1017.2
20260905122008 71 135 10.0 14.0 0.00 0.08 0.08 54 1017.3
20260905121006 71 135 14.0 18.0 0.00 0.08 0.08 57 1017.4
20260905120012 72 135 11.0 16.0 0.00 0.08 0.08 53 1017.4
20260905115008 74 270 12.0 20.0 0.00 0.08 0.08 50 1017.3
20260905113010 70 135 12.0 17.0 0.00 0.08 0.08 60 1017.6
20260905112006 71 315 12.0 17.0 0.00 0.08 0.08 58 1017.6
20260905111006 71 270 10.0 13.0 0.00 0.08 0.08 57 1017.5
20260905110012 72 270 14.0 18.0 0.00 0.08 0.08 57 1017.4
20260905105009 70 135 10.0 15.0 0.00 0.08 0.08 62 1017.5
20260905104006 67 270 10.0 15.0 0.00 0.08 0.08 64 1017.7
20260905103013 69 270 10.0 14.0 0.00 0.08 0.08 64 1017.5
20260905102009 72 270 11.0 14.0 0.00 0.08 0.08 63 1017.3
20260905101008 69 270 11.0 18.0 0.00 0.08 0.08 69 1017.4
20260905100015 67 135 8.0 10.0 0.00 0.08 0.08 70 1017.6
20260905095006 68 270 11.0 15.0 0.00 0.08 0.08 68 1017.5
20260905094007 68 270 10.0 12.0 0.00 0.08 0.08 74 1017.5
20260905093009 65 225 9.0 15.0 0.00 0.08 0.08 75 1017.8
20260905092007 65 270 9.0 12.0 0.00 0.08 0.08 75 1017.8
20260905091008 67 270 12.0 20.0 0.00 0.08 0.08 74 1017.8
20260905090009 69 270 11.0 15.0 0.00 0.08 0.08 68 1017.4
20260905084009 67 270 11.0 16.0 0.00 0.08 0.08 75 1017.5
20260905083031 65 135 11.0 15.0 0.00 0.08 0.08 77 1017.5
20260905080017 66 270 10.0 15.0 0.00 0.08 0.08 79 1017.1
20260905075006 65 270 9.0 12.0 0.00 0.08 0.08 83 1017.1
20260905074007 64 270 9.0 12.0 0.00 0.08 0.08 85 1017.2
20260905073009 64 270 8.0 12.0 0.00 0.08 0.08 86 1017.0
20260905072008 62 270 8.0 11.0 0.00 0.08 0.08 86 1017.1
20260905071008 62 225 7.0 10.0 0.00 0.08 0.08 87 1017.2
20260905070010 61 270 7.0 11.0 0.00 0.08 0.08 87 1017.3
20260905065005 61 270 6.0 10.0 0.00 0.08 0.08 89 1017.2
20260905063008 59 270 5.0 10.0 0.00 0.08 0.08 93 1017.2
20260905062008 58 135 5.0 7.0 0.00 0.08 0.08 94 1017.4
20260905061009 57 135 5.0 7.0 0.00 0.08 0.08 95 1017.3
20260905060017 57 270 4.0 9.0 0.00 0.08 0.08 95 1017.2
20260905055008 57 135 4.0 7.0 0.00 0.08 0.08 94 1017.0
20260905054008 57 135 5.0 8.0 0.01 0.08 0.08 94 1016.9
20260905053011 57 270 4.0 5.0 0.01 0.08 0.08 95 1016.7
20260905052008 57 270 4.0 7.0 0.02 0.08 0.08 94 1016.5
20260905051005 57 270 4.0 8.0 0.03 0.08 0.08 94 1016.3
20260905050024 57 270 5.0 7.0 0.05 0.08 0.08 94 1016.1
20260905045009 57 270 4.0 6.0 0.05 0.08 0.08 93 1015.9
20260905044007 57 180 5.0 8.0 0.05 0.07 0.07 94 1016.1
20260905042007 58 270 6.0 10.0 0.05 0.06 0.06 93 1016.1
20260905041008 59 270 6.0 10.0 0.04 0.05 0.05 94 1016.2
20260905040011 59 0 4.0 7.0 0.02 0.03 0.03 94 1016.0
20260905035007 59 270 4.0 6.0 0.02 0.03 0.03 94 1016.0
20260905034008 60 45 4.0 6.0 0.02 0.02 0.02 93 1016.0
20260905033007 60 0 3.0 7.0 0.01 0.01 0.01 92 1015.8
20260905032009 60 0 1.0 3.0 0.01 0.01 0.01 92 1015.1
20260905031008 60 0 2.0 4.0 0.01 0.01 0.01 91 1014.8
20260905030017 60 0 1.0 3.0 0.01 0.01 0.01 93 1014.9
20260905025007 61 270 2.0 4.0 0.01 0.01 0.01 93 1015.0
20260905024006 61 225 3.0 4.0 0.00 0.00 0.00 92 1014.8
20260905023010 61 270 3.0 4.0 0.00 0.00 0.00 90 1014.8
20260905022005 62 270 3.0 4.0 0.00 0.00 0.00 89 1014.4
20260905021007 62 0 4.0 7.0 0.00 0.00 0.00 87 1014.6
20260905020021 63 270 4.0 6.0 0.00 0.00 0.00 84 1014.7
20260905015008 63 0 2.0 4.0 0.00 0.00 0.00 82 1014.1
20260905013011 63 135 4.0 6.0 0.00 0.00 0.00 80 1014.1
20260905012005 64 0 4.0 5.0 0.00 0.00 0.00 80 1014.2
20260905011008 64 135 3.0 4.0 0.00 0.00 0.00 80 1014.1
20260905005006 64 0 4.0 7.0 0.00 0.00 0.00 77 1013.6
20260905003015 65 0 5.0 9.0 0.00 0.00 0.00 77 1013.6
20260905002007 65 270 5.0 11.0 0.00 0.00 0.00 77 1013.2
20260905001010 65 135 4.0 8.0 0.00 0.00 0.00 76 1013.2
20260905000013 66 135 5.0 10.0 0.00 0.00 0.00 73 1013.0
20260904235008 67 270 4.0 8.0 0.00 0.00 0.00 69 1012.7
20260904234009 67 135 4.0 6.0 0.00 0.00 0.00 69 1012.3
20260904233013 68 0 4.0 6.0 0.00 0.00 0.00 68 1011.9
20260904232007 68 45 2.0 5.0 0.00 0.00 0.00 70 1011.9
20260904231008 67 45 2.0 6.0 0.00 0.00 0.00 71 1011.7
20260904230011 67 0 4.0 7.0 0.00 0.00 0.00 71 1011.2
20260904225005 68 0 4.0 8.0 0.00 0.00 0.00 71 1011.1
20260904224007 69 135 4.0 7.0 0.00 0.00 0.00 69 1010.8
20260904223010 69 135 3.0 5.0 0.00 0.00 0.00 72 1010.5
20260904220017 68 270 2.0 3.0 0.00 0.00 0.00 76 1009.7
20260904215006 68 0 1.0 3.0 0.00 0.00 0.00 76 1009.4
20260904214005 69 135 1.0 3.0 0.00 0.00 0.00 74 1009.4
20260904213009 70 135 1.0 3.0 0.00 0.00 0.00 73 1009.1
20260904212005 71 270 2.0 4.0 0.00 0.00 0.00 70 1009.0
20260904211005 72 135 3.0 6.0 0.00 0.00 0.00 68 1008.9
20260904210010 73 270 4.0 7.0 0.00 0.00 0.00 65 1008.9
20260904205007 73 135 3.0 4.0 0.00 0.00 0.00 64 1008.6
20260904204005 73 180 3.0 5.0 0.00 0.00 0.00 62 1008.3
20260904203008 73 180 2.0 4.0 0.00 0.00 0.00 63 1008.4
20260904202006 73 270 1.0 3.0 0.00 0.00 0.00 65 1008.6
20260904201008 72 225 0.0 3.0 0.00 0.00 0.00 66 1008.7
20260904200011 72 225 1.0 3.0 0.00 0.00 0.00 66 1008.8
20260904195005 73 225 0.0 2.0 0.00 0.00 0.00 66 1008.9
20260904194008 73 225 1.0 3.0 0.00 0.00 0.00 66 1008.9
20260904193010 73 225 1.0 4.0 0.00 0.00 0.00 66 1009.0
20260904192008 73 315 2.0 3.0 0.00 0.00 0.00 65 1008.8
20260904191006 73 225 1.0 3.0 0.00 0.00 0.00 65 1008.8
20260904190013 74 225 1.0 2.0 0.00 0.00 0.00 63 1008.7
20260904185009 74 225 2.0 5.0 0.00 0.00 0.00 63 1008.8
20260904184006 75 225 2.0 4.0 0.00 0.00 0.00 61 1008.7
20260904183009 75 225 3.0 4.0 0.00 0.00 0.00 61 1008.8
20260904182005 76 225 3.0 4.0 0.00 0.00 0.00 60 1008.8
20260904181007 76 270 2.0 4.0 0.00 0.00 0.00 60 1008.7
20260904175009 76 0 1.0 2.0 0.00 0.00 0.00 62 1009.0
20260904174008 76 225 2.0 3.0 0.00 0.00 0.00 62 1008.9
20260904172008 78 270 5.0 8.0 0.00 0.00 0.00 58 1008.9
20260904171007 78 270 4.0 5.0 0.00 0.00 0.00 58 1008.9
20260904170015 79 270 6.0 9.0 0.00 0.00 0.00 56 1008.8
20260904165005 80 270 5.0 8.0 0.00 0.00 0.00 56 1008.7
20260904164007 80 270 5.0 9.0 0.00 0.00 0.00 54 1008.6
20260904163107 80 270 10.0 14.0 0.00 0.00 0.00 54 1008.5
20260904163007 80 270 10.0 14.0 0.00 0.00 0.00 54 1008.5
20260904162006 81 225 6.0 9.0 0.00 0.00 0.00 55 1008.4
20260904161006 80 270 5.0 7.0 0.00 0.00 0.00 57 1008.6
20260904160013 79 270 7.0 14.0 0.00 0.00 0.00 56 1008.8